This is the latest recevied weather packets stored in our database for station/object KB3VSP. If no packets are shown the sender has not sent any weather packets the latest 10 day(s).
| Time | Temp. | Humidity | Pressure | Rain* | Wind** | Luminosity | Snow |
|---|---|---|---|---|---|---|---|
| 1777676388 | 5.56° C | 99% | 1012.6 hPa | 1.78 mm | - | 12 W/m² | - |
| 1777676086 | 5.56° C | 99% | 1012.8 hPa | 1.78 mm | - | 10 W/m² | - |
| 1777675781 | 6.11° C | 99% | 1012.4 hPa | 1.27 mm | - | 8 W/m² | - |
| 1777675479 | 6.11° C | 99% | 1012.4 hPa | 1.27 mm | - | 10 W/m² | - |
| 1777675176 | 6.11° C | 99% | 1012.2 hPa | 3.05 mm | - | 13 W/m² | - |
| 1777674872 | 6.11° C | 99% | 1012.2 hPa | 8.89 mm | - | 9 W/m² | - |
| 1777674568 | 7.22° C | 99% | 1012.1 hPa | 6.1 mm | - | 5 W/m² | - |
| 1777674266 | 7.78° C | 99% | 1011.9 hPa | 0 mm | - | 3 W/m² | - |
| 1777673962 | 7.78° C | 99% | 1011.5 hPa | 0 mm | - | 5 W/m² | - |
| 1777673659 | 7.78° C | 99% | 1011.5 hPa | 0 mm | - | 14 W/m² | - |
| 1777673357 | 7.78° C | 99% | 1011.7 hPa | 0 mm | - | 30 W/m² | - |
| 1777673055 | 7.78° C | 99% | 1011.7 hPa | 0 mm | - | 25 W/m² | - |
| 1777672750 | 7.78° C | 99% | 1011.7 hPa | 0 mm | - | 21 W/m² | - |
| 1777672447 | 7.78° C | 99% | 1011.4 hPa | 0 mm | - | 30 W/m² | - |
| 1777672142 | 7.78° C | 99% | 1011.6 hPa | 0 mm | - | 26 W/m² | - |
| 1777670926 | 7.22° C | 99% | 1012 hPa | 0 mm | - | 19 W/m² | - |
| 1777670623 | 7.22° C | 99% | 1012 hPa | 0 mm | - | 19 W/m² | - |
| 1777670320 | 7.22° C | 99% | 1011.9 hPa | 0 mm | - | 25 W/m² | - |
| 1777668501 | 7.22° C | 99% | 1012 hPa | 0 mm | - | 38 W/m² | - |
| 1777668198 | 7.22° C | 99% | 1011.8 hPa | 1.78 mm | - | 38 W/m² | - |
| 1777667894 | 7.22° C | 99% | 1012.1 hPa | 3.56 mm | - | 21 W/m² | - |
| 1777667592 | 7.22° C | 99% | 1012.1 hPa | 1.78 mm | - | 19 W/m² | - |
| 1777666683 | 6.67° C | 99% | 1011.9 hPa | 0 mm | - | 20 W/m² | - |
| 1777666379 | 6.67° C | 99% | 1012 hPa | 0 mm | - | 20 W/m² | - |
| 1777666076 | 7.22° C | 98% | 1012.2 hPa | 0 mm | - | 34 W/m² | - |
* Rain latest hour (hover to see other rain measurements)
** Current wind speed in m/s (hover to see current wind gust speed)